This is the latest recevied weather packets stored in our database for station/object EW1958. If no packets are shown the sender has not sent any weather packets the latest 10 day(s).
| Time | Temp. | Humidity | Pressure | Rain* | Wind** | Luminosity | Snow |
|---|---|---|---|---|---|---|---|
| 1788482402 | 16.11° C | 75% | 1012.4 hPa | 0 mm | - | - | - |
| 1788481952 | 16.11° C | 76% | 1012.4 hPa | 0 mm | - | - | - |
| 1788481652 | 16.11° C | 77% | 1012.5 hPa | 0 mm | - | - | - |
| 1788481504 | 15.56° C | 75% | 1012.4 hPa | 0 mm | - | - | - |
| 1788481350 | 16.11° C | 76% | 1012.5 hPa | 0 mm | - | - | - |
| 1788480749 | 15.56° C | 76% | 1012.5 hPa | 0 mm | - | - | - |
| 1788480577 | 15.56° C | 77% | 1012.5 hPa | 0 mm | - | - | - |
| 1788480151 | 15.56° C | 81% | 1012.5 hPa | 0 mm | - | - | - |
| 1788479845 | 15.56° C | 78% | 1012.5 hPa | 0 mm | - | - | - |
| 1788479545 | 15.56° C | 78% | 1012.6 hPa | 0 mm | - | - | - |
| 1788479246 | 15.56° C | 76% | 1012.6 hPa | 0 mm | - | - | - |
| 1788479071 | 15.56° C | 83% | 1012.5 hPa | 0 mm | - | - | - |
| 1788478645 | 15.56° C | 82% | 1012.6 hPa | 0 mm | - | - | - |
| 1788478347 | 15.56° C | 83% | 1012.6 hPa | 0 mm | - | - | - |
| 1788478046 | 15.56° C | 85% | 1012.5 hPa | 0 mm | - | - | - |
| 1788477745 | 15.56° C | 85% | 1012.5 hPa | 0 mm | - | - | - |
| 1788477576 | 15° C | 86% | 1012.6 hPa | 0 mm | - | - | - |
| 1788477145 | 15.56° C | 85% | 1012.5 hPa | 0 mm | - | - | - |
| 1788476844 | 15.56° C | 84% | 1012.7 hPa | 0 mm | - | - | - |
| 1788476553 | 15.56° C | 83% | 1012.7 hPa | 0 mm | - | - | - |
| 1788475945 | 15.56° C | 79% | 1012.9 hPa | 0 mm | - | - | - |
| 1788475820 | 16.11° C | 75% | 1013 hPa | 0 mm | - | - | - |
| 1788475651 | 16.11° C | 78% | 1012.9 hPa | 0 mm | - | - | - |
| 1788474749 | 16.67° C | 71% | 1012.8 hPa | 0 mm | - | - | - |
| 1788474571 | 17.22° C | 69% | 1012.8 hPa | 0 mm | - | - | - |
* Rain latest hour (hover to see other rain measurements)
** Current wind speed in m/s (hover to see current wind gust speed)